ATLAS 5 CENTAUR DEB, 55856

Orbit data source: Space-Track

ATLAS 5 CENTAUR DEB, 55856 is space debris in HEO originally from a launch on Wed, 17 Oct 2018 UTC launched from the Air Force Eastern Test Range (AFETR). Debris objects in space refer to the collection of defunct objects orbiting the Earth. Examples of debris include non-operational satellites, rocket bodies, and fragments generated from explosions, collisions, or faulty payload assembly.

Loading next visibility...
Identifier
55856, 2018-079HJ
Orbit
HEO
Country
Flag of USUS
Related business
Flag of USUnited Launch Alliance/Lockheed Martin (US)
Manufacturer
ULA Decatur
Mission
Spacecraft
Bus & Motor
Unknown
Mass
Unknown
Launch date (UTC)
2018-10-17 (8 years ago)
Launch vehicle
Unknown
Launch site
Air Force Eastern Test Range (AFETR)
Object type
Payload
Rocket body
Debris
Shape & HBR
Unknown shape, 1.1 m
Radar Cross Section
Medium (>0.1 m² and <1 m²)

Expand to show TLE details & history
Last TLE update: 2 months ago

TLE from 2 months ago
0 ATLAS 5 CENTAUR DEB
1 55856U 18079HJ  26206.00188946 -.00000113  00000-0  00000-0 0  9992
2 55856  14.0578   8.3084 4549547   1.2408 359.5187  1.90454767 15830
Epoch: 2026-07-25T00:02Z
TLE epoch observation values (Epoch: 2026-07-25T00:02:43.249Z)
Latitude
-0.00005°
Longitude
64.92266°
Altitude
8,631.351 km
Speed
6.214 km/s
True Right ascension
00h 33m 17s
True Declination
0° 00' 00"
Sunlit
Object was in daylight at epoch
Visualization orbit readout
Latitude
Unknown
Longitude
Unknown
Altitude
Unknown
Speed
Unknown
Apparent Right ascension
Unknown
Apparent Declination
Unknown
Sunlit
N/A
Visualization observer readout
Local Sidereal Time
04:01:49
Azimuth
Unknown
Elevation
Unknown
Doppler factor
Unknown
Orbital elements
Apogee altitude
33,624.597 km
Perigee altitude
8,607.417 km
Semi-major axis
27,494.144 km
Eccentricity
0.45495
Inclination
14.0578°
RAAN
8.3084°
Arg. of periapsis
1.2408°
True anomaly
358.55734°
Mean anomaly
359.5187°
Eccentric anomaly
359.11698°
Mean motion
0.47608 °/min
Orbital period
756.17 mins
BSTAR
0
Loading maneuver chart data...
Computing Atmospheric mass density...

Documentation

Showing up to 5 results
|